Regional Weather Roundup
Issued by NWS Wakefield, VA

Home | Current Version | Previous Version | Graphics & Text | Print | Product List | Glossary On
Versions: 1 2 3 4 5 6 7 8 9 10 11 12 13 14 15 16 17 18 19 20 21 22 23 24 25 26 27 28 29 30 31 32 33 34 35 36 37 38 39 40 41 42 43 44 45 46 47 48 49 50
833
ASUS41 KAKQ 231715
RWRAKQ

REGIONAL WEATHER ROUNDUP
NATIONAL WEATHER SERVICE WAKEFIELD VA
100 PM EDT SUN JUL 23 2017

Note: "fair" indicates few or no clouds below 12,000 feet with no
significant weather and/or obstructions to visibility. * = Denotes
station may not report precipitation (e.g., rain,snow,etc.),
thunder or fog.

VAZ042-051-052>054-056-231800-
NORTHERN VIRGINIA

CITY           SKY/WX    TMP DP  RH WIND       PRES   REMARKS
WASH NATIONAL  CLOUDY    89  74  60 VRB5      29.80F HX  98
DULLES         CLOUDY    84  72  67 W7        29.82R
FORT BELVOIR   MOSUNNY   86  74  65 SW3       29.81S
QUANTICO       PTSUNNY   85  77  77 SW3       29.82F HX  95
FREDERICKSBRG* RAIN      82  81  96 MISG      29.82S
STAFFORD*      RAIN      79  78  95 W8        29.89R
WARRENTON      RAIN      77  72  84 SE6G18    29.84R
CULPEPER*      LGT RAIN  79  76  91 CALM      29.84F
MANASSAS*      CLOUDY    82  76  81 SW5       29.82F
LEESBURG*      CLOUDY    84  77  79 W6        29.83F
WINCHESTER     CLOUDY    81  68  65 W6        29.83F
FRONT ROYAL*   MOSUNNY   81  73  78 S3        29.83F
LURAY*         MOSUNNY   81  72  74 S5        29.84F
$$

VAZ048-049-060>072-079>083-231800-
CENTRAL AND SOUTH CENTRAL VIRGINIA

CITY           SKY/WX    TMP DP  RH WIND       PRES   REMARKS
RICHMOND       CLOUDY    92  70  48 NW9       29.82F HX  97
CHESTERFIELD*  FAIR      91  71  51 NW8       29.84F HX  97
PETERSBURG*    CLOUDY    89  69  51 CALM      29.84F
HANOVER        PTSUNNY   92  69  47 NW8       29.83F HX  97
TAPPAHANNOCK*  PTSUNNY   90  66  44 W5        29.83S
QUINTON*       FAIR      90  74  59 NW7       29.82S HX  98
CHARLOTTSVILLE CLOUDY    86  70  58 S7        29.84S
GORDONSVILLE*  CLOUDY    83  74  72 SW3       29.83S
ORANGE*        LGT RAIN  82  73  74 SW6       29.85S
LOUISA*        CLOUDY    86  72  62 W8        29.84S
BUMPASS*       PTSUNNY   86  76  73 SW5       29.84S HX  96
FARMVILLE*     CLOUDY    90  55  31 SW6       29.84F
CREWE*         FAIR      89  61  39 W6        29.85F
FORT PICKETT*  FAIR     N/A N/A N/A W9        29.85F
CHASE CITY*    FAIR      91  70  50 NW7       29.86F HX  96
CLARKSVILLE*   FAIR      91  72  52 CALM      29.85F HX  98
SOUTH HILL*    PTSUNNY   91  75  59 W3        29.90F HX 101
LAWRENCEVILLE* FAIR      94  71  46 W6        29.83F HX 100
EMPORIA*       CLOUDY    91  73  55 S5        29.84F HX 100
$$

VAZ088>098-231800-
SOUTHEAST VIRGINIA

CITY           SKY/WX    TMP DP  RH WIND       PRES   REMARKS
NORFOLK        MOSUNNY   91  75  59 VRB7      29.82S HX 101
VIRGINIA BEACH PTSUNNY   92  75  57 NW8       29.81S HX 103
NORFOLK NAVAL  PTSUNNY   90  76  63 W8        29.84S HX 101
WEST POINT*    PTSUNNY   93  71  48 W6        29.83F HX 100
SALUDA*        FAIR      88  78  72 N5        29.82S HX 101
NEWPORT NEWS   TSTM      82  72  71 NW12G25   29.84R
LANGLEY AFB    PTSUNNY   91  77  62 W6        29.82S HX 105
FORT EUSTIS    PTSUNNY   88  79  74 N5        29.80F HX 102
WILLIAMSBURG*  MOSUNNY   97  73  46 W12       29.83S HX 107
HR EXEC AP*    FAIR      88  79  74 W7        29.80F HX 102
FRANKLIN*      MOSUNNY   88  77  70 SW5       29.84F HX 100
US460-WAKEFLD  MOSUNNY   93  75  55 VRB5      29.82F HX 104
$$

VAZ020-022-025-037-045-231800-
WEST CENTRAL AND SOUTHWEST VIRGINIA

CITY           SKY/WX    TMP DP  RH WIND       PRES   REMARKS
STAUNTON*      CLOUDY    81  67  63 SW13      29.91R
WAYNESBORO*    MOSUNNY   80  69  71 SW8       29.91R
HOT SPRINGS VA CLOUDY    73  57  56 W14       30.04S
LYNCHBURG      CLOUDY    86  65  49 VRB6      29.89S
DANVILLE       PTSUNNY   86  74  67 SW5       29.89S
SOUTH BOSTON*  FAIR      88  70  54 CALM      29.86F
MARTINSVILLE   CLOUDY    90  69  51 SW7       29.91F
ROANOKE        MOSUNNY   89  64  43 SW9       29.91R
BLACKSBURG     SUNNY     85  65  50 W5        29.99S
DUBLIN*        MOSUNNY   85  59  40 W8        29.98S
MARION*        MOSUNNY   84  67  55 W16G22    30.02S
HILLSVILLE*    MOSUNNY   83  61  47 CALM      30.00S
RICHLANDS*     FAIR      82  68  62 NW8       30.02S
WISE*          MOSUNNY   82  61  47 W13G18    30.03F
ABINGDON*      MOSUNNY   87  70  57 W8        29.99S
$$

MDZ021>025-VAZ099-100-231800-
SOUTHERN MARYLAND AND THE DELMARVA PENINSULA

CITY           SKY/WX    TMP DP  RH WIND       PRES   REMARKS
PATUXENT RIVER CLOUDY    84  78  82 SW5       29.81R HX  95
BAY BRIDGE APT MOSUNNY   88  73  62 W3        29.80F HX  96
LEONARDTOWN    CLOUDY    84  73  70 SW7       29.84R
DOVER          PTSUNNY   85  84  97 NE3       29.79R HX 107
GEORGETOWN     CLOUDY    87  73  62 W6        29.81R
EASTON         MOSUNNY   88  72  58 W5        29.85R
CAMBRIDGE      SUNNY     86  73  66 VRB5      29.81S
SALISBURY      NOT AVBL
OCEAN CITY     PTSUNNY   88  76  67 W9        29.80R HX  99
WALLOPS ISLAND CLOUDY    85  77  77 W8        29.82R HX  95
ACCOMACK*      CLOUDY    88  75  65 W9        29.82S HX  98
$$

NCZ012>017-030>032-231800-
NORTH CENTRAL AND EASTERN NORTH CAROLINA

CITY           SKY/WX    TMP DP  RH WIND       PRES   REMARKS
ROANOKE RAPIDS FAIR      95  75  52 NW7       29.85S HX 107
RALEIGH        PTSUNNY   95  69  42 W9        29.88F HX 100
ELIZABETH CITY MOSUNNY   91  81  72 W10       29.84S HX 111
AHOSKIE*         N/A     91  77  64 CALM      29.84F HX 104
EDENTON*       MOSUNNY   92  79  65 SW8       29.86S HX 109
CURRITUCK*     MOSUNNY   91  78  65 SW5       29.84F HX 105
KILL DEVIL HLS MOSUNNY   89  76  64 SW8       29.85S HX 100
MANTEO         MOSUNNY   90  77  65 W15G23    29.85F HX 102
CAPE HATTERAS  SUNNY     84  75  74 SW13      29.89F
TARBORO*       NOT AVBL
GOLDSBORO      SUNNY     94  79  62 SW14      29.86F HX 112
WASHINGTON     SUNNY     91  78  64 SW10G17   29.87S HX 106
GREENVILLE     SUNNY     95  77  55 SW13G20   29.88F HX 109
NEW BERN       MOSUNNY   93  79  63 SW9       29.89F HX 110
WILMINGTON     MOSUNNY   92  77  61 SW9       29.90F HX 105
$$

VAZ048-231800-
ELSEWHERE

CITY           SKY/WX    TMP DP  RH WIND       PRES   REMARKS
HARRISBURG PA  PTSUNNY   83  72  69 MISG      29.79S
BALTIMORE      CLOUDY    88  73  61 W7        29.79S HX  95
ANNAPOLIS      PTSUNNY   88  76  67 CALM      29.79S HX  99
ANDREWS AFB    CLOUDY    87  71  59 W7        29.80F
PHILADELPHIA   PTSUNNY   84  72  67 E7        29.81R
HENDERSON NC   MOSUNNY   89  71  55 CALM      29.87F
GREENSBORO     CLOUDY    90  73  57 W8        29.90F HX  98
ROCKY MOUNT    SUNNY     93  77  59 W9        29.86F HX 107
$$

VAZ100-231800-
MARINE

STATION/POSITION TIME  TEMP    WIND        PRES    WAVE   SWELL
                       AIR SEA DIR/SP/G            HT/PER HT/PER
                 (UTC) (F)     (DEG/KT/KT) (MB)    (FT/S) (FT/S)
BRANDYWINE LGT   1642   80     180/  2/  3 1009.7R
CAPE MAY NJ      1648   80 75  280/  5/  6 1009.0R
LEWES DE         1648   78 72   80/  5/  6 1009.0R
15NM E FENWICK I 1650   77 76  210/  4/  6 1010.0R   3/ 8   3/ 8
OCEAN-CITY-INLET 1648   83 71  320/  1/  3 1009.7R
WACHAPREAGUE VA  1648   92 85  280/  2/  5 1009.8R
THOMAS POINT MD  1700   82 83  140/  8/  8   N/A
GOOSES REEF MD   1700   86 85  340/  8/ 10 1010.1    1
COVE POINT MD    1648   85     290/  4/  5 1010.2R
SOLOMONS ISLAND  1648   87 85  240/  2/  4   N/A
BISHOPS HEAD MD  1648   83 86  270/  6/  7 1009.7R
PINEY POINT MD   1648          280/  5/  6   N/A
POTOMAC MD       1700   84 85  270/  4/  6 1008.6    1
CAMBRIDGE MD     1648   85 88              1010.2R
LEWISETTA VA     1648   86 86  230/  4/  5 1009.5S
RAPPAHANNOCK LGT 1648          260/  6/  7 1010.6R
STINGRAY PT      1700   86 86  350/  4/  6 1010.5    0
YORK RVR RNG VA  1648   89     270/  5/  5 1010.0F
YORKTOWN VA      1648   86 83   20/ 11/ 14 1009.3F
JAMESTOWN VA     1700      88  300/  6/  8   N/A     0
DOMINION TERM VA 1648   86     320/  4/  5 1009.9F
KIPTOPEKE VA     1648      78  270/  3/  4   N/A
CHES BAY BRIDGE  1648   84 70  290/ 12/ 13 1009.8S
CAPE HENRY VA    1648   86     300/ 10/ 13   N/A
WILLOUBY STN VA  1648   85     250/  7/  7 1009.9F
S CRANEY ISL VA  1648   90     260/  7/  9 1009.8S
CAPE HENRY BUOY  1700      69                N/A     2/11   2/11
1ST LANDING BUOY 1700   85 78              1009.6    1/ 3
64NM E OF VA BCH 1650   80 79  240/ 10/ 14 1011.2R   4/ 7   3/ 7
DUCK PIER NC     1648   86 58  240/ 13/ 19 1010.3F
44100 DUCK FRF   1605      69                N/A     3/ 6
44056 DUCK FRF   1700      62                N/A     2/11
OREGON INLET NC  1642   85 83  200/ 19/ 22 1010.9F
HATTERAS NC      1648   82 76  230/ 12/ 17 1012.2F
DIAMOND SHLS NC  1650   84 84  230/ 21/ 25 1012.2S   7/ 7   2/11
CAPE LOOKOUT NC  1700   85     220/ 11/ 14 1012.6F
$$




USA.gov is the U.S. government's official web portal to all federal, state and local government web resources and services.